Location: Unspecified
(0.0000°N, 0.0000°E)
Time: 18:17:14
(UTC+00:00)

STARLINK 1058 - Pass Details

Date: 17 January 2020
Orbit: 548 x 551 km, 53.0° (Epoch: 22 January)

Event Time Altitude Azimuth Distance (km) Brightness Sun altitude
Rises 19:24:16 0° 298° (WNW) 2,703 7.8 -17.3°
Reaches altitude 10° 19:27:05 10° 278° (W) 1,814 7.2 -18.0°
Maximum altitude 19:29:50 17° 235° (SW) 1,409 6.7 -18.6°
Drops below altitude 10° 19:32:37 10° 193° (SSW) 1,821 6.7 -19.3°
Sets 19:35:28 0° 173° (S) 2,718 7.4 -19.9°
